TimeAST,TemperatureF,Dew PointF,Humidity,Sea Level PressureIn,VisibilityMPH,Wind Direction,Wind SpeedMPH,Gust SpeedMPH,PrecipitationIn,Events,Conditions,WindDirDegrees,DateUTC
12:00 AM,80.6,75.2,84,29.86,6.2,East,13.8,-,N/A,,Scattered Clouds,100,2012-11-05 04:00:00
1:00 AM,80.6,73.4,79,29.86,6.2,East,12.7,-,N/A,,Scattered Clouds,90,2012-11-05 05:00:00
2:00 AM,80,73,75,29.84,31,East,12.7,,,,Partly Cloudy,90,2012-11-05 06:00:00
2:00 AM,80.6,73.4,79,29.83,6.2,East,11.5,-,N/A,,Scattered Clouds,90,2012-11-05 06:00:00
3:00 AM,78.8,73.4,83,29.80,6.2,East,12.7,-,N/A,,Scattered Clouds,100,2012-11-05 07:00:00
4:00 AM,78.8,73.4,83,29.80,6.2,East,12.7,-,N/A,,Scattered Clouds,100,2012-11-05 08:00:00
5:00 AM,79,73,78,29.82,31,East,12.7,,,,Partly Cloudy,100,2012-11-05 09:00:00
5:00 AM,78.8,73.4,83,29.80,6.2,East,12.7,-,N/A,,Scattered Clouds,100,2012-11-05 09:00:00
6:00 AM,78.8,73.4,83,29.83,6.2,East,11.5,-,N/A,,Scattered Clouds,90,2012-11-05 10:00:00
7:00 AM,78.8,73.4,83,29.86,6.2,ESE,10.4,-,N/A,,Scattered Clouds,110,2012-11-05 11:00:00
8:00 AM,81,74,74,29.87,31,ESE,11.5,,,,Scattered Clouds,110,2012-11-05 12:00:00
8:00 AM,82.4,75.2,79,29.86,6.2,ESE,11.5,-,N/A,,Partly Cloudy,110,2012-11-05 12:00:00
9:00 AM,82.4,73.4,74,29.89,6.2,East,12.7,-,N/A,,Scattered Clouds,100,2012-11-05 13:00:00
10:00 AM,84.2,73.4,70,29.89,6.2,East,13.8,-,N/A,,Scattered Clouds,100,2012-11-05 14:00:00
11:00 AM,84,75,68,29.89,31,East,12.7,,,,Partly Cloudy,100,2012-11-05 15:00:00
11:00 AM,84.2,75.2,74,29.89,6.2,East,12.7,-,N/A,,Scattered Clouds,100,2012-11-05 15:00:00
12:00 PM,84.2,75.2,74,29.86,6.2,East,12.7,-,N/A,,Partly Cloudy,100,2012-11-05 16:00:00
1:00 PM,84.2,75.2,74,29.86,6.2,East,12.7,-,N/A,,Scattered Clouds,100,2012-11-05 17:00:00
2:00 PM,84.2,73.4,70,29.83,6.2,East,13.8,-,N/A,,Partly Cloudy,90,2012-11-05 18:00:00
3:00 PM,84.2,75.2,74,29.80,6.2,East,13.8,-,N/A,,Partly Cloudy,100,2012-11-05 19:00:00
4:00 PM,82.4,73.4,74,29.80,6.2,East,13.8,-,N/A,,Partly Cloudy,100,2012-11-05 20:00:00
5:00 PM,82.4,73.4,74,29.80,6.2,ESE,12.7,-,N/A,,Partly Cloudy,110,2012-11-05 21:00:00
6:00 PM,80.6,75.2,84,29.80,6.2,East,10.4,-,N/A,,Partly Cloudy,100,2012-11-05 22:00:00
7:00 PM,80.6,73.4,79,29.80,6.2,East,11.5,-,N/A,,Partly Cloudy,90,2012-11-05 23:00:00
8:00 PM,80.6,73.4,79,29.83,6.2,East,15.0,-,N/A,,Partly Cloudy,100,2012-11-06 00:00:00
10:00 PM,80.6,75.2,84,29.86,6.2,ESE,11.5,-,N/A,,Partly Cloudy,110,2012-11-06 02:00:00
11:00 PM,79,75,83,29.87,25,SE,8.1,,,,Scattered Clouds,130,2012-11-06 03:00:00
11:00 PM,78.8,75.2,89,29.86,6.2,ESE,9.2,-,N/A,,Partly Cloudy,120,2012-11-06 03:00:00